Weather History for VTSP - August, 2013

Change the Weather History Date:

Tuesday, August 13, 2013

  Actual Average Record
Temperature  
Mean Temperature 79 °F -  
Max Temperature 86 °F 87 °F 95 °F (1997)
Min Temperature 72 °F 77 °F 72 °F (2013)
Cooling Degree Days 14    
Growing Degree Days 29 (Base 50)    
Moisture  
Dew Point 74 °F    
Average Humidity 81    
Maximum Humidity 95    
Minimum Humidity 69    
Precipitation  
Precipitation 0.16 in 0.44 in - ()
Sea Level Pressure  
Sea Level Pressure 29.77 in    
Wind  
Wind Speed 4 mph ()    
Max Wind Speed 17 mph    
Max Gust Speed 34 mph    
Visibility 4.9 miles    
Events Rain    
Averages and records for this station are not official NWS values.
T = Trace of Precipitation, MM = Missing Value Source: Averaged Metar Reports

Daily Weather History Graph

Daily Weather History Graph

Search for Another Location

Airport or City:

Trip Planner

Search our weather history database for the weather conditions in past years. The results will help you decide how hot, cold, wet, or windy it might be!

Date:

Astronomy

Aug. 13, 2013 Rise Set
Actual Time 6:19 AM ICT 6:43 PM ICT
Civil Twilight 5:57 AM ICT 7:05 PM ICT
Nautical Twilight 5:32 AM ICT 7:30 PM ICT
Astronomical Twilight 5:07 AM ICT 7:55 PM ICT
Moon 11:16 AM ICT (8/13) 11:24 PM ICT (8/13)
Length of Visible Light 13h 07m
Length of Day
12h 23m
Waxing Crescent, 36% of the Moon is Illuminated
Aug 13
Waxing Crescent
Aug 14
First Quarter
Aug 21
Full
Aug 28
Last Quarter
Sep 5
New

Hourly Weather History & Observations

Time (ICT) Temp. Heat Index Dew Point Humidity Pressure Visibility Wind Dir Wind Speed Gust Speed Precip Events Conditions
12:00 AM 78.8 °F - 73.4 °F 83% 29.83 in 4.3 mi West 5.8 mph - N/A Rain Light Rain
12:30 AM 78.8 °F - 73.4 °F 83% 29.83 in 5.0 mi Variable 4.6 mph - N/A   Mostly Cloudy
1:00 AM 78.8 °F - 73.4 °F 83% 29.80 in 5.0 mi Variable 2.3 mph - N/A   Mostly Cloudy
1:30 AM 78.8 °F - 73.4 °F 83% 29.80 in 5.0 mi Variable 2.3 mph - N/A   Mostly Cloudy
2:00 AM 77.0 °F - 73.4 °F 89% 29.77 in 5.0 mi Calm Calm - N/A   Mostly Cloudy
2:30 AM 77.0 °F - 73.4 °F 89% 29.77 in 5.0 mi Calm Calm - N/A   Mostly Cloudy
3:00 AM 77.0 °F - 73.4 °F 89% 29.77 in 5.0 mi Calm Calm - N/A   Mostly Cloudy
3:30 AM 77.0 °F - 73.4 °F 89% 29.77 in 5.0 mi Calm Calm - N/A   Mostly Cloudy
4:00 AM 77.0 °F - 73.4 °F 89% 29.77 in 5.0 mi Calm Calm - N/A   Mostly Cloudy
4:30 AM 77.0 °F - 73.4 °F 89% 29.77 in 5.0 mi Calm Calm - N/A   Mostly Cloudy
5:00 AM 77.0 °F - 73.4 °F 89% 29.77 in 5.0 mi Calm Calm - N/A   Mostly Cloudy
5:30 AM 77.0 °F - 73.4 °F 89% 29.77 in 5.0 mi Calm Calm - N/A   Mostly Cloudy
6:00 AM 77.0 °F - 73.4 °F 89% 29.77 in 5.0 mi Calm Calm - N/A   Mostly Cloudy
6:30 AM 77.0 °F - 73.4 °F 89% 29.77 in 5.0 mi Calm Calm - N/A   Mostly Cloudy
7:00 AM 77 °F - 76 °F 95% 29.74 in 6 mi Calm Calm - -   Overcast
7:00 AM 77.0 °F - 73.4 °F 89% 29.77 in 5.0 mi Calm Calm - N/A   Mostly Cloudy
7:30 AM 77.0 °F - 75.2 °F 94% 29.80 in 5.0 mi Calm Calm - N/A   Mostly Cloudy
8:00 AM 77.0 °F - 75.2 °F 94% 29.80 in 5.0 mi Variable 2.3 mph - N/A   Mostly Cloudy
8:30 AM 78.8 °F - 75.2 °F 89% 29.80 in 5.0 mi Calm Calm - N/A   Mostly Cloudy
9:00 AM 84.2 °F 92.3 °F 75.2 °F 74% 29.80 in 5.0 mi West 6.9 mph - N/A   Mostly Cloudy
9:30 AM 84.2 °F 92.3 °F 75.2 °F 74% 29.80 in 5.0 mi West 9.2 mph - N/A   Mostly Cloudy
10:00 AM 84.2 °F 92.3 °F 75.2 °F 74% 29.80 in 5.0 mi West 9.2 mph - N/A   Mostly Cloudy
10:30 AM 84.2 °F 92.3 °F 75.2 °F 74% 29.80 in 5.0 mi West 10.4 mph - N/A   Mostly Cloudy
11:00 AM 84.2 °F 92.3 °F 75.2 °F 74% 29.80 in 5.0 mi West 9.2 mph - N/A   Mostly Cloudy
11:30 AM 78.8 °F - 73.4 °F 83% 29.80 in 3.1 mi West 5.8 mph - N/A Rain Light Rain
12:00 PM 80.6 °F 86.2 °F 75.2 °F 84% 29.77 in 5.0 mi WNW 5.8 mph - N/A   Mostly Cloudy
12:30 PM 82.4 °F 89.5 °F 75.2 °F 79% 29.77 in 5.0 mi West 8.1 mph - N/A   Mostly Cloudy
1:00 PM 85 °F - 77 °F 72% 29.74 in 6 mi West 4.6 mph - -   Mist
1:00 PM 82.4 °F 89.5 °F 75.2 °F 79% 29.77 in 5.0 mi West 12.7 mph - N/A   Mostly Cloudy
1:30 PM 84.2 °F 92.3 °F 75.2 °F 74% 29.74 in 5.0 mi West 12.7 mph - N/A   Mostly Cloudy
2:00 PM 84.2 °F 92.3 °F 75.2 °F 74% 29.74 in 5.0 mi West 15.0 mph - N/A   Mostly Cloudy
2:30 PM 84.2 °F 92.3 °F 75.2 °F 74% 29.71 in 5.0 mi West 12.7 mph - N/A   Mostly Cloudy
3:00 PM 84.2 °F 92.3 °F 75.2 °F 74% 29.71 in 5.0 mi West 12.7 mph - N/A   Mostly Cloudy
3:30 PM 84.2 °F 92.3 °F 75.2 °F 74% 29.71 in 5.0 mi West 9.2 mph - N/A   Mostly Cloudy
4:00 PM 84.2 °F 92.3 °F 75.2 °F 74% 29.71 in 5.0 mi West 13.8 mph - N/A   Mostly Cloudy
4:30 PM 84.2 °F 92.3 °F 75.2 °F 74% 29.71 in 5.0 mi West 10.4 mph - N/A   Mostly Cloudy
5:00 PM 82.4 °F 89.5 °F 75.2 °F 79% 29.71 in 5.0 mi WSW 6.9 mph - N/A   Mostly Cloudy
5:30 PM 80.6 °F 83.9 °F 69.8 °F 70% 29.74 in 1.9 mi West 17.3 mph 34.5 mph N/A Rain Heavy Rain
6:00 PM 78.8 °F - 73.4 °F 83% 29.74 in 4.3 mi WSW 8.1 mph - N/A   Mostly Cloudy
6:30 PM 78.8 °F - 73.4 °F 83% 29.74 in 5.0 mi WSW 5.8 mph - N/A   Mostly Cloudy
7:00 PM 81 °F - 72 °F 69% 29.72 in 5 mi WSW 4.6 mph - -   Mist
7:00 PM 80.6 °F 84.6 °F 71.6 °F 74% 29.74 in 4.3 mi SW 5.8 mph - N/A   Mostly Cloudy
7:30 PM 80.6 °F 85.4 °F 73.4 °F 79% 29.77 in 4.3 mi SW 4.6 mph - N/A   Mostly Cloudy
8:00 PM 80.6 °F 85.4 °F 73.4 °F 79% 29.77 in 4.3 mi WSW 9.2 mph - N/A   Mostly Cloudy
8:30 PM 80.6 °F 85.4 °F 73.4 °F 79% 29.80 in 5.0 mi WSW 13.8 mph - N/A   Mostly Cloudy
9:00 PM 80.6 °F 85.4 °F 73.4 °F 79% 29.80 in 5.0 mi West 9.2 mph - N/A   Mostly Cloudy
9:30 PM 80.6 °F 85.4 °F 73.4 °F 79% 29.83 in 5.0 mi WSW 8.1 mph - N/A   Mostly Cloudy
10:00 PM 80.6 °F 85.4 °F 73.4 °F 79% 29.83 in 5.0 mi WSW 9.2 mph - N/A   Mostly Cloudy
10:30 PM 80.6 °F 85.4 °F 73.4 °F 79% 29.83 in 5.0 mi WSW 5.8 mph - N/A   Mostly Cloudy
11:00 PM 80.6 °F 85.4 °F 73.4 °F 79% 29.83 in 5.0 mi SW 8.1 mph - N/A   Mostly Cloudy
11:30 PM 80.6 °F 85.4 °F 73.4 °F 79% 29.80 in 5.0 mi WSW 9.2 mph - N/A   Mostly Cloudy